Location: St. Louis
(38.6270°N, 90.1994°W)
Time: 12:17:34
(UTC-06:00)

A-11 Canister half - Pass Details

Date: 09 December 2021
Orbit: 1524 x 1684 km, 47.3° (Epoch: 25 January)

Event Time Altitude Azimuth Distance (km) Brightness Sun altitude
Rises 22:45:32 0° 219° (SW) 4,877 - -68.6°
Reaches altitude 10° 22:48:42 10° 215° (SW) 3,907 - -69.1°
Maximum altitude 22:58:31 60° 139° (SE) 1,880 - -70.4°
Drops below altitude 10° 23:08:25 10° 63° (ENE) 3,945 - -71.6°
Sets 23:11:38 0° 60° (ENE) 4,927 - -71.9°
